User: anonymous   Login
Location: Capvern
(43.1036°N, 0.3160°E)
Time: 10:24:30
(UTC+00:00)
Language:

Cosmos 2084 Rocket - Orbit

View from above orbital plane
View from above orbital plane
View from above satellite
View from above satellite

Ground track
Ground track

The orbit data is extracted from the following two-line orbital elements,

1 20666U 90055D   22017.92889921  .00001007  00000-0  10212-3 0  9996
2 20666  62.7852 307.7929 0120933  57.5296 303.7421 14.92704624711784
Epoch (UTC): 17 January 2022 22:17:36
Eccentricity: 0.0120933
inclination: 62.7852°
perigee height: 505 km
apogee height: 674 km
right ascension of ascending node: 307.7929°
argument of perigee: 57.5296°
revolutions per day: 14.92704624
mean anomaly at epoch: 303.7421°
orbit number at epoch: 71178

The dashed part of the orbit path shows where the satellite is in the earth's shadow,  

DLR